Campo, CA

11:07 AM PDT on September 20, 2019 (GMT -0700)
Campo

Weather History for KCZZ - May, 2019

Change the Weather History Date:

Saturday, May 25, 2019

  Actual Average Record
Temperature  
Mean Temperature 52 °F 62 °F  
Max Temperature 65 °F 82 °F 99 °F (1951)
Min Temperature 39 °F 43 °F 30 °F (1960)
Degree Days  
Heating Degree Days 13 4  
Month to date heating degree days 244 135  
Since 1 July heating degree days 2962 2903  
Cooling Degree Days 0 1  
Month to date cooling degree days 0 20  
Year to date cooling degree days 2 23  
Growing Degree Days 2 (Base 50)    
Moisture  
Dew Point 46 °F    
Average Humidity 74    
Maximum Humidity 92    
Minimum Humidity 56    
Precipitation  
Precipitation 0.00 in 0.01 in 0.21 in (1955)
Month to date precipitation 1.41 0.17  
Year to date precipitation 12.60 10.03  
Sea Level Pressure  
Sea Level Pressure 29.81 in    
Wind  
Wind Speed 9 mph (WSW)    
Max Wind Speed 20 mph    
Max Gust Speed 24 mph    
T = Trace of Precipitation, MM = Missing Value Source: NWS Daily Summary

Daily Weather History Graph

Daily Weather History Graph

Search for Another Location

Airport or City:

Astronomy

May. 25, 2019 Rise Set
Actual Time 5:41 AM PDT 7:44 PM PDT
Civil Twilight 5:13 AM PDT 8:12 PM PDT
Nautical Twilight 4:40 AM PDT 8:45 PM PDT
Astronomical Twilight 4:04 AM PDT 9:21 PM PDT
Moon 12:51 AM PDT (5/25) 11:40 AM PDT (5/25)
Length of Visible Light 14h 58m
Length of Day
14h 02m
Waning Gibbous, 58% of the Moon is Illuminated
May 25
Waning Gibbous
May 26
Last Quarter
Jun 3
New
Jun 9
First Quarter
Jun 17
Full

Hourly Weather History & Observations

Time (PDT) Temp. Windchill Dew Point Humidity Pressure Visibility Wind Dir Wind Speed Gust Speed Precip Events Conditions
12:52 AM 45.0 °F 43.5 °F 43.0 °F 93% 29.83 in - NE 3.5 mph - N/A   Unknown
1:52 AM 45.0 °F 43.5 °F 42.1 °F 90% 29.82 in - North 3.5 mph - N/A   Unknown
2:52 AM 44.1 °F 40.8 °F 41.0 °F 89% 29.81 in - NE 5.8 mph - N/A   Unknown
3:52 AM 42.1 °F 40.2 °F 39.9 °F 92% 29.80 in - ENE 3.5 mph - N/A   Unknown
4:52 AM 39.9 °F 37.8 °F 37.9 °F 93% 29.81 in - NE 3.5 mph - N/A   Unknown
5:52 AM 39.9 °F 37.8 °F 37.0 °F 89% 29.81 in - NE 3.5 mph - N/A   Unknown
6:52 AM 44.1 °F - 41.0 °F 89% 29.82 in - Calm Calm - N/A   Unknown
7:52 AM 52.0 °F - 45.0 °F 77% 29.81 in - Calm Calm - N/A   Unknown
8:52 AM 55.0 °F - 46.0 °F 72% 29.82 in - SW 10.4 mph - N/A   Unknown
9:52 AM 57.0 °F - 48.9 °F 74% 29.83 in - SW 15.0 mph - N/A   Unknown
10:52 AM 57.9 °F - 48.9 °F 72% 29.83 in - SSW 15.0 mph - N/A   Unknown
11:52 AM 60.1 °F - 51.1 °F 72% 29.84 in - SW 15.0 mph - N/A   Unknown
12:52 PM 60.1 °F - 50.0 °F 69% 29.83 in - SW 16.1 mph - N/A   Unknown
1:52 PM 63.0 °F - 51.1 °F 65% 29.81 in - SSW 13.8 mph - N/A   Unknown
2:52 PM 64.0 °F - 50.0 °F 60% 29.79 in - SW 18.4 mph 24.2 mph N/A   Unknown
3:52 PM 64.9 °F - 48.9 °F 56% 29.79 in - WSW 16.1 mph 21.9 mph N/A   Unknown
4:52 PM 64.9 °F - 48.9 °F 56% 29.78 in - NW 10.4 mph - N/A   Unknown
5:52 PM 63.0 °F - 48.0 °F 58% 29.78 in - WNW 9.2 mph - N/A   Unknown
6:52 PM 59.0 °F - 48.0 °F 67% 29.78 in - SW 17.3 mph - N/A   Unknown
7:52 PM 54.0 °F - 46.0 °F 75% 29.80 in - SW 10.4 mph - N/A   Unknown
8:52 PM 51.1 °F - 45.0 °F 80% 29.81 in - WSW 10.4 mph - N/A   Unknown
9:52 PM 51.1 °F - 46.0 °F 83% 29.82 in - SW 9.2 mph - N/A   Unknown
10:52 PM 51.1 °F - 45.0 °F 80% 29.82 in - WNW 5.8 mph - N/A   Unknown
11:52 PM 48.0 °F - 44.1 °F 86% 29.81 in - SW 6.9 mph - N/A   Unknown